GEFSMW_500_meanwind_246.txt.gz
Wind_Speed
10 9 9 9 9 8 8 8 7 8 8 8 8 7 7 7 7 6 6 7 6 7 7 6 6 6 7 7 7 7 7 7 7 7 8 8 9 9 8 9 9 10 9
10 10 9 8 8 8 7 7 7 8 8 8 8 7 7 6 6 6 5 6 6 6 6 5 5 6 6 6 6 6 7 7 7 7 8 8 8 8 8 9 9 9 9
10 9 9 8 8 8 8 8 8 8 8 8 7 6 6 6 5 5 5 5 6 5 5 5 5 5 5 5 5 6 6 7 7 7 7 7 7 7 8 8 9 9 9
10 9 9 8 8 8 8 9 9 9 8 7 7 6 5 5 5 5 5 5 6 5 5 5 5 5 5 5 6 6 6 6 7 7 7 7 7 7 8 8 8 9 10
10 9 9 9 9 8 8 9 9 8 7 7 6 5 5 5 6 6 6 5 6 6 6 6 5 5 5 6 6 6 6 7 7 7 6 7 7 8 8 8 9 9 10
10 9 9 9 9 9 9 8 8 8 8 7 6 6 6 6 6 7 6 6 6 6 7 6 6 6 6 6 7 7 7 7 8 7 6 7 7 8 8 8 9 9 9
10 9 10 10 9 9 9 8 9 9 8 8 8 7 7 7 7 7 6 6 6 7 7 7 6 6 6 6 6 7 7 8 8 7 7 8 8 8 8 8 8 9 10
10 10 10 10 10 9 9 9 9 8 8 8 8 8 7 7 7 7 6 7 7 7 7 7 7 7 7 7 7 7 8 8 8 8 8 9 9 8 8 8 9 9 9
11 10 10 10 10 10 10 9 9 9 9 9 8 8 8 7 7 7 7 7 7 7 7 7 7 8 8 8 8 8 8 9 9 9 9 9 8 8 8 8 9 9 10
12 11 11 10 10 10 10 10 9 9 9 9 9 8 8 7 7 7 7 8 8 8 7 7 7 8 7 8 8 9 9 9 9 9 9 9 9 8 9 9 9 9 9
13 12 12 12 12 11 11 11 10 10 10 10 9 9 8 8 8 7 8 8 8 8 8 8 7 7 7 7 8 9 9 9 9 9 9 8 9 9 9 9 10 10 10
14 14 14 13 13 12 12 12 11 11 11 10 10 9 9 9 9 9 9 8 8 9 9 9 8 8 8 8 9 9 9 9 9 9 9 9 9 9 9 10 10 10 11
16 15 14 14 14 13 13 13 12 12 12 11 11 10 10 10 10 10 10 10 9 9 10 10 10 9 9 9 10 10 10 10 10 10 10 9 10 10 10 10 10 11 11
16 16 15 15 15 14 14 14 13 13 13 12 12 12 12 12 12 11 11 11 11 10 10 11 11 10 10 10 11 11 11 11 11 11 11 11 11 11 11 11 11 11 12
17 17 16 16 16 16 16 15 15 15 14 14 14 14 14 13 13 13 13 13 13 12 12 12 11 11 12 12 12 11 11 12 12 12 12 12 12 12 12 13 13 13 13
18 18 17 17 17 18 17 16 15 15 15 15 15 15 15 14 14 14 14 14 14 13 13 13 12 13 13 13 13 12 12 12 12 12 13 13 14 14 14 13 13 14 14
19 19 18 18 18 18 17 17 17 16 16 16 16 15 15 14 14 15 15 15 14 14 14 15 15 15 15 15 14 14 14 14 13 14 14 15 15 15 15 15 14 14 15
20 20 19 18 18 18 18 17 17 18 17 17 16 16 16 16 15 16 16 15 15 15 15 16 16 16 15 15 15 15 15 15 15 15 16 16 16 15 15 16 15 16 16
22 21 20 20 19 19 19 18 18 19 19 18 17 17 17 17 17 17 17 17 17 17 17 17 17 17 17 17 17 17 17 17 17 17 17 17 17 17 17 17 17 18 18
23 22 21 21 20 20 20 20 20 20 20 20 19 19 19 19 18 18 19 19 19 19 19 18 18 18 18 18 18 18 18 18 18 18 17 17 18 18 18 19 19 19 20
24 23 23 22 21 21 22 21 21 21 21 21 20 20 20 20 20 20 20 20 21 20 20 19 19 19 19 19 20 20 20 20 19 19 19 19 19 20 20 21 21 21 21
24 24 24 23 22 22 23 23 22 22 22 22 23 22 21 21 21 21 20 20 21 21 21 21 21 21 21 20 21 21 21 21 21 21 21 21 21 21 22 22 22 23 23
25 25 25 24 23 23 24 24 24 24 24 24 24 24 23 22 22 22 22 22 22 22 22 23 23 22 22 22 22 22 22 22 22 22 23 23 23 23 24 24 24 24 25
25 25 25 25 25 25 24 25 25 25 25 25 25 24 24 24 23 23 23 23 23 23 23 24 24 24 24 24 24 24 24 24 24 24 24 25 25 25 25 26 26 27 28
27 26 26 26 26 26 26 25 25 26 26 26 26 25 25 25 25 25 25 25 25 25 25 25 26 26 26 26 26 26 26 26 26 26 26 26 27 27 27 28 29 29 29
28 28 27 27 27 28 27 27 27 26 27 27 27 27 26 26 26 27 27 27 27 27 27 27 28 28 28 28 28 28 28 28 28 28 28 28 29 29 29 30 31 31 32

GEFSMW_500_meanwind_252.txt.gz
Wind_Speed
7 8 8 8 7 7 6 7 7 7 7 7 8 8 8 7 6 6 6 6 6 6 6 6 5 5 5 5 6 7 7 7 7 8 8 9 9 9 8 9 10 10 10
7 8 8 7 7 6 6 7 7 7 7 7 7 7 7 6 6 6 6 6 5 5 6 6 5 5 5 6 6 6 7 7 7 7 8 8 8 8 8 9 9 10 9
7 8 7 7 6 6 6 7 7 7 7 7 7 7 6 6 5 5 5 5 5 5 6 5 5 5 5 5 5 6 7 7 7 7 7 7 7 8 8 8 9 10 9
7 7 7 7 7 7 7 7 7 7 7 7 7 6 6 6 5 5 4 4 5 5 5 5 5 5 5 5 5 5 6 7 6 6 6 6 7 7 7 8 8 8 8
7 7 7 7 7 7 7 7 7 7 6 7 7 6 5 5 5 5 4 4 4 5 5 5 5 5 5 5 5 5 6 6 6 6 6 6 7 7 7 7 7 8 9
6 7 7 8 7 7 7 7 7 6 6 7 7 6 6 5 5 5 4 5 5 5 5 5 5 5 5 6 6 6 7 7 7 6 6 6 7 7 7 7 8 8 9
7 7 7 8 8 7 7 7 7 7 7 7 7 6 6 5 5 5 5 5 5 6 6 6 6 6 6 6 6 6 6 7 6 6 6 7 7 7 7 7 8 8 9
8 8 8 8 8 7 8 7 7 7 7 7 7 7 7 6 6 6 6 6 6 7 7 7 6 6 6 6 6 7 6 6 6 6 6 6 7 7 7 8 8 8 9
9 9 9 8 9 8 8 8 8 8 8 8 8 8 7 7 7 7 6 6 7 7 7 6 6 6 6 6 6 6 6 5 5 6 6 6 7 7 8 9 8 8 9
10 9 9 9 9 9 9 9 8 8 8 8 8 7 7 7 7 7 7 7 7 7 7 7 6 6 6 6 6 7 6 6 5 6 6 6 6 7 7 8 8 9 9
10 10 10 10 10 10 10 9 9 8 8 9 8 8 7 7 7 7 8 8 8 8 8 7 7 8 8 8 7 7 7 7 6 6 6 6 7 7 7 8 8 9 9
11 11 11 11 11 11 10 10 10 9 10 10 9 8 8 8 9 9 9 9 9 8 8 8 8 8 8 7 7 7 7 7 7 7 7 7 7 8 8 8 8 9 10
11 11 11 12 12 11 11 10 11 11 11 11 11 10 10 10 10 10 10 10 9 9 8 8 8 8 8 8 8 8 7 8 8 8 8 8 8 9 8 9 9 10 10
12 12 12 12 12 12 12 11 11 11 11 12 12 12 11 11 11 11 11 11 10 10 9 9 8 8 8 8 9 9 9 9 9 10 10 10 10 9 10 10 11 11 11
14 13 13 13 13 13 12 12 12 12 12 12 12 12 12 12 12 12 12 12 11 10 10 10 10 10 9 9 10 10 10 10 10 11 11 11 11 11 11 12 12 12 12
16 15 15 14 13 13 13 13 13 13 13 12 12 12 12 13 13 12 13 13 12 12 12 12 11 12 11 11 11 11 11 11 11 11 12 12 12 12 13 13 13 14 14
17 17 16 15 15 14 14 14 14 14 14 13 13 13 12 13 13 13 14 14 14 13 13 13 13 13 13 13 13 12 12 12 13 13 13 13 14 14 14 15 15 15 15
18 18 17 17 17 17 16 16 16 16 15 15 14 14 14 14 14 14 14 14 15 15 15 14 14 15 14 14 14 14 14 14 14 14 14 14 15 15 15 15 15 15 16
19 20 19 19 18 18 18 18 17 17 16 16 15 15 15 15 15 15 15 15 15 16 16 16 16 16 16 15 15 16 16 16 16 16 16 16 16 16 16 16 16 17 17
21 20 20 21 21 20 20 19 18 18 17 17 16 16 16 16 16 16 16 16 16 16 17 17 17 17 17 17 17 17 17 17 17 18 18 18 18 17 17 17 17 18 18
23 23 22 22 22 22 21 21 20 20 20 20 19 18 18 18 18 17 17 17 18 18 17 17 18 18 18 18 18 18 19 19 19 19 20 20 19 19 19 19 20 20 20
25 25 24 24 24 24 23 23 23 23 23 23 22 20 19 19 19 19 19 19 19 19 19 19 19 20 21 21 20 20 20 21 21 21 21 22 22 22 22 22 22 22 23
26 26 25 25 24 24 25 25 25 25 25 24 24 23 22 21 21 20 20 20 20 21 20 20 21 21 22 22 22 22 23 23 23 23 23 23 24 24 24 24 25 25 25
26 26 27 26 25 25 26 25 26 26 26 25 25 25 24 24 23 23 22 22 22 22 22 22 22 23 23 23 24 24 24 25 25 25 25 25 26 26 26 26 27 27 27
27 27 28 27 27 27 26 26 26 26 27 26 27 27 26 26 25 24 24 24 24 24 24 24 24 25 25 25 26 26 27 27 27 27 27 27 27 27 28 28 29 29 29
27 27 27 28 28 27 27 27 27 28 28 28 28 27 28 27 27 26 26 26 26 26 26 27 27 26 27 27 28 28 28 29 29 29 29 30 30 29 30 30 31 31 31

GEFSMW_500_meanwind_258.txt.gz
Wind_Speed
7 7 7 8 8 8 8 7 7 8 8 8 8 8 8 8 8 7 7 7 7 6 6 6 6 6 6 7 7 7 7 7 8 8 8 9 10 10 11 11 11 11 12
7 7 7 8 8 8 7 7 7 7 7 7 8 8 8 7 7 7 7 6 6 6 6 7 7 7 6 6 7 7 7 7 8 8 9 9 9 9 10 10 11 12 12
7 7 8 8 7 8 7 7 6 7 7 7 7 7 7 7 6 6 6 6 6 6 6 6 6 6 6 6 6 6 7 7 8 8 9 9 9 9 9 10 11 11 11
7 8 8 8 7 7 7 6 7 7 7 7 7 7 7 6 6 6 6 6 6 5 6 6 6 6 6 6 6 6 7 8 8 8 8 8 9 9 9 10 10 10 11
8 8 8 8 7 7 7 7 7 7 7 7 7 7 7 6 6 5 5 5 5 5 5 5 6 6 5 5 6 6 7 8 8 8 8 8 9 9 8 8 9 10 11
8 8 8 8 8 8 7 7 7 7 7 7 7 7 7 6 6 6 6 6 5 5 5 5 5 5 5 6 6 7 7 8 8 8 9 8 8 8 7 7 8 9 9
9 8 8 9 8 8 7 7 7 7 7 7 7 8 7 7 7 7 6 6 6 6 5 5 6 6 6 6 7 7 7 7 8 7 7 8 8 8 7 7 8 9 9
10 10 10 10 9 8 8 8 8 8 8 8 8 8 7 7 7 7 7 7 7 7 6 7 7 7 7 7 7 7 7 8 8 8 7 7 7 8 8 8 8 8 9
11 11 11 10 9 9 8 8 9 8 8 8 9 8 7 7 7 7 8 8 8 8 7 8 8 8 8 8 7 8 8 8 8 8 8 8 8 8 8 8 8 9 9
12 12 12 11 10 9 9 9 9 8 8 8 8 8 7 8 7 7 7 7 8 8 8 8 8 8 8 8 8 8 8 8 8 8 8 8 8 8 7 8 9 9 9
13 13 13 12 11 10 10 10 9 9 9 8 8 8 8 8 8 8 8 8 8 9 9 9 9 8 8 9 9 8 8 8 8 8 8 8 8 8 8 9 10 10 11
15 14 13 13 12 11 11 10 10 10 10 10 10 10 10 10 10 9 9 9 9 9 9 9 9 9 9 9 9 9 9 9 9 8 8 9 9 9 10 11 11 12 12
15 15 14 14 13 12 12 12 12 12 11 11 11 11 11 11 11 11 11 11 11 10 10 9 9 10 10 10 10 10 10 10 10 10 9 10 10 10 11 12 12 13 13
17 17 16 15 15 14 13 13 13 13 12 12 12 12 12 12 12 12 12 12 12 11 11 11 10 10 11 11 11 12 12 12 12 11 11 11 12 12 12 12 12 13 14
18 17 17 16 15 15 14 14 14 14 13 13 13 13 13 13 13 13 13 13 12 12 12 12 11 11 12 12 13 13 13 13 13 13 13 13 13 13 13 13 14 14 14
19 18 17 16 16 16 16 16 15 15 15 14 14 14 14 14 15 14 14 14 13 13 13 13 12 12 12 13 13 13 14 13 14 14 14 14 14 14 14 15 15 15 15
21 20 19 18 18 17 17 18 17 17 16 16 15 15 15 15 16 15 15 15 14 14 14 13 13 14 13 13 14 14 14 14 14 14 14 15 15 15 15 16 16 16 17
22 20 20 20 20 19 18 18 18 18 18 17 17 17 16 16 16 16 15 15 15 15 14 14 14 15 15 15 15 15 15 15 16 16 16 16 17 17 17 17 17 18 19
23 23 22 21 21 21 20 20 20 20 20 19 19 18 18 18 17 17 17 16 16 16 16 16 16 17 17 17 16 16 16 17 17 17 17 17 18 18 18 19 19 20 20
23 23 23 23 23 22 21 22 21 21 21 21 21 20 20 20 19 18 18 18 17 17 17 18 18 19 19 19 19 19 18 18 19 19 19 19 20 21 21 21 21 22 22
24 24 24 24 24 23 23 23 22 23 23 23 23 23 22 22 21 21 20 19 19 19 19 19 20 20 20 21 21 21 21 21 21 21 21 22 22 22 23 23 23 23 23
25 25 24 24 25 25 25 25 25 25 24 24 24 25 24 24 24 24 23 22 22 22 21 21 21 21 22 22 23 23 23 23 23 23 23 24 24 24 24 25 25 25 25
25 25 25 25 25 25 26 26 26 26 25 24 24 25 26 25 25 25 24 24 24 23 23 23 23 23 23 23 23 24 25 25 25 26 26 26 27 27 27 27 27 27 28
25 25 26 26 26 26 27 27 27 27 26 26 25 26 26 26 26 26 25 25 25 25 24 24 24 24 24 25 25 26 26 26 27 27 28 29 29 29 29 29 29 29 30
26 26 26 26 27 27 27 27 28 28 28 27 27 27 27 27 27 27 27 27 27 27 26 26 25 25 25 26 26 27 27 28 28 29 29 30 30 30 31 31 31 31 32
27 26 26 27 27 27 28 28 28 28 28 28 28 28 28 28 28 28 28 28 28 28 28 27 27 27 27 28 28 29 29 29 30 30 30 31 32 32 32 32 33 34 34

GEFSMW_500_meanwind_264.txt.gz
Wind_Speed
8 8 8 8 8 8 8 8 8 8 8 8 7 7 7 7 6 6 7 6 6 6 6 6 7 7 7 7 7 8 7 7 8 8 9 9 9 10 11 11 10 10 11
8 8 8 8 8 8 8 8 8 7 7 7 7 7 7 6 6 6 6 6 7 7 6 6 6 6 6 7 7 8 7 7 8 8 8 8 9 10 10 11 11 11 11
8 8 9 9 9 8 8 8 8 7 6 7 7 7 6 6 6 6 6 5 6 6 6 6 6 6 6 6 7 7 8 8 8 8 8 8 9 9 9 10 11 11 12
8 9 9 9 9 9 8 8 7 6 6 6 7 6 6 6 6 6 6 6 6 6 6 6 6 6 6 7 7 7 7 7 8 8 9 8 9 9 9 9 10 11 11
9 9 9 9 9 9 9 8 7 7 7 7 7 7 6 6 5 5 6 6 6 6 6 6 6 6 7 7 7 7 7 7 8 8 8 8 8 9 9 9 9 9 10
10 10 10 10 9 9 9 9 8 8 8 7 7 7 6 6 6 6 6 6 6 6 6 7 6 7 7 7 7 7 7 7 7 8 8 8 9 9 9 9 9 9 9
10 10 10 10 10 10 10 9 9 8 8 8 8 7 7 6 6 6 6 6 6 7 7 6 6 6 6 7 7 7 7 7 7 7 8 8 8 9 8 8 8 8 9
11 11 11 11 11 11 11 10 10 9 9 9 9 8 8 7 7 7 7 7 7 7 7 7 7 7 7 7 7 7 7 7 7 7 7 7 7 8 8 8 8 7 8
12 12 12 12 12 11 11 11 11 10 10 10 10 9 9 8 8 8 8 7 8 8 8 7 7 7 7 7 7 8 8 8 8 8 8 7 7 7 7 7 8 8 9
13 13 13 13 13 12 12 12 12 12 11 11 10 10 10 9 8 9 8 8 8 8 7 7 7 8 8 8 8 8 8 8 8 9 9 9 8 8 8 8 9 9 9
14 14 14 14 14 14 13 12 12 12 12 12 12 12 11 10 10 9 9 9 9 9 8 8 8 8 8 8 8 8 8 8 8 8 9 9 9 9 9 9 9 8 9
16 16 15 15 15 15 14 14 14 13 13 13 13 12 11 11 11 11 10 10 10 10 9 9 9 9 9 8 8 8 8 9 9 9 9 9 10 10 10 10 10 9 9
17 17 17 16 16 16 15 15 15 15 14 14 14 14 13 13 12 12 12 11 11 11 12 11 11 10 10 10 9 9 9 10 10 10 10 10 10 10 11 11 11 10 11
18 17 17 17 17 17 17 16 16 16 16 15 15 15 15 14 13 13 13 13 13 12 12 12 12 11 10 11 11 10 10 10 11 11 11 11 12 12 12 12 12 12 12
18 18 18 18 18 18 18 18 18 18 17 17 16 16 16 15 14 14 14 14 14 13 13 12 12 11 11 12 12 12 11 11 12 12 12 12 13 13 13 13 13 13 14
19 19 19 19 19 19 19 19 19 19 19 18 18 18 17 16 16 15 15 15 14 14 14 14 13 13 13 13 14 13 13 13 13 13 13 14 14 14 14 15 15 15 15
20 20 20 20 19 19 20 21 20 20 20 20 19 19 19 18 18 17 16 16 16 16 15 15 15 15 15 15 15 15 15 15 14 14 15 15 16 16 16 16 16 16 17
22 22 21 21 21 21 21 21 22 21 22 21 20 20 20 20 19 19 18 18 17 17 16 16 16 16 16 17 17 17 16 16 16 16 16 16 16 16 17 17 18 18 18
24 24 23 22 22 22 23 23 23 23 22 22 22 22 22 21 20 20 19 19 19 18 18 18 17 17 18 18 18 19 19 19 19 19 18 18 18 18 18 19 19 19 20
25 24 24 24 23 23 23 23 24 23 23 23 23 23 23 22 21 21 21 21 21 20 20 20 19 20 20 20 20 21 21 21 21 21 20 20 20 20 20 21 21 21 22
26 25 25 25 24 24 24 24 25 24 23 23 23 23 23 24 23 23 23 23 23 23 22 22 22 22 22 22 22 22 21 22 22 22 23 23 23 23 23 24 24 24 24
26 25 25 25 25 25 25 25 25 26 25 24 24 24 25 26 26 25 25 25 24 24 24 24 24 24 24 24 24 24 23 23 23 24 24 25 25 25 25 26 26 26 26
25 25 25 25 25 25 25 25 26 27 27 26 26 26 26 25 26 26 26 26 26 26 26 26 25 25 25 25 25 25 24 24 24 25 25 26 26 27 27 27 27 28 28
25 25 26 26 25 26 26 26 26 26 27 27 27 28 28 27 26 27 27 27 26 26 26 26 26 26 26 26 25 25 25 25 25 26 26 27 27 28 28 28 29 30 30
27 27 26 26 26 26 26 26 26 26 27 27 28 28 28 28 28 28 28 28 27 27 27 27 27 27 27 27 27 27 27 27 28 28 27 27 28 29 30 30 31 31 31
28 28 28 27 27 26 26 25 25 26 26 27 27 28 28 28 28 29 28 28 28 28 28 28 28 28 28 29 29 28 28 28 29 29 29 29 29 30 30 31 31 32 33

GEFSMW_500_meanwind_270.txt.gz
Wind_Speed
10 10 10 10 10 10 10 10 10 10 10 11 11 10 9 10 10 9 9 9 8 8 8 8 8 8 8 9 9 9 9 9 9 9 9 10 10 10 10 10 10 10 10
10 10 11 11 11 11 11 10 10 10 10 10 10 9 9 9 8 8 8 8 8 7 7 7 8 8 8 8 8 8 8 8 9 9 9 9 10 10 9 9 10 10 10
11 11 11 12 11 11 11 10 10 10 10 9 9 9 8 8 8 7 8 8 7 7 7 7 7 8 8 8 8 8 7 8 8 8 8 9 9 9 9 9 9 9 9
12 12 12 12 11 10 10 10 10 10 10 9 9 9 8 8 7 7 8 7 7 7 7 7 8 8 8 8 8 8 7 8 8 9 9 9 9 8 9 9 9 9 9
13 13 13 12 11 11 11 10 10 10 10 9 9 9 9 8 8 7 7 7 7 7 7 7 8 8 8 8 8 8 8 8 8 8 8 9 9 9 10 10 9 9 9
13 13 13 13 12 12 11 11 10 10 10 9 9 9 9 8 8 7 8 8 8 8 8 8 8 8 8 8 8 8 8 9 9 8 8 9 9 10 9 10 10 9 9
14 14 14 13 12 12 11 11 10 10 10 10 10 9 9 9 8 8 9 8 8 8 8 8 8 9 8 9 9 9 9 9 9 9 9 9 9 9 9 9 10 10 10
14 14 14 14 13 13 12 11 11 11 11 11 10 11 11 10 10 9 9 9 9 9 8 8 8 8 9 9 9 10 10 10 10 9 9 8 8 9 8 9 9 9 10
15 15 14 14 14 14 13 12 12 12 12 12 11 12 12 11 11 10 10 11 11 10 10 9 9 9 9 10 10 10 10 10 10 10 9 8 7 8 8 8 9 10 10
16 16 16 16 15 15 15 14 14 14 14 13 13 12 12 12 12 12 12 12 12 12 11 11 11 10 10 10 10 10 10 10 9 9 9 8 8 8 8 8 9 10 10
19 19 18 16 16 16 16 16 15 15 15 14 14 14 14 14 14 14 14 13 13 13 12 11 11 11 11 11 11 10 10 10 10 9 9 9 9 9 9 9 10 10 10
20 20 19 18 17 17 17 17 17 17 16 16 15 15 15 15 15 15 15 14 14 14 13 13 13 12 12 12 11 10 10 10 10 9 9 9 9 10 10 10 10 10 10
21 21 20 19 19 19 18 18 18 17 17 17 17 16 16 16 16 16 16 15 15 14 14 14 14 13 13 12 12 12 12 11 11 11 10 10 10 10 10 11 11 12 12
23 22 21 20 21 21 20 19 18 18 18 18 18 17 17 17 17 17 17 16 16 15 15 14 14 14 13 13 13 12 12 12 12 12 11 11 11 11 12 12 13 13 13
25 24 23 22 22 22 22 21 20 20 20 20 19 19 19 19 19 18 18 17 17 16 16 15 15 14 14 14 14 13 12 12 12 12 12 13 13 13 13 14 14 14 15
26 25 24 24 24 23 23 23 22 22 22 22 21 21 21 20 20 19 19 18 17 17 17 16 15 15 15 15 15 14 14 14 13 13 13 13 14 14 15 15 16 16 16
26 26 26 25 25 25 24 24 23 24 24 23 23 22 22 22 21 20 19 19 18 18 18 18 17 17 16 16 16 15 15 15 15 15 15 15 16 16 16 17 17 18 19
26 27 27 26 26 26 25 25 24 24 24 23 23 23 23 23 22 21 21 20 20 20 19 19 19 18 18 17 17 17 17 17 17 17 17 18 18 18 18 19 19 19 19
27 27 27 27 27 27 26 26 25 24 24 24 24 24 24 24 24 23 23 22 21 21 20 20 19 19 19 19 19 19 19 19 19 19 20 20 20 21 21 21 21 22 21
28 28 27 27 27 27 26 25 26 26 25 25 25 25 25 25 24 24 23 23 23 22 22 22 21 20 21 21 21 21 21 21 21 21 22 22 22 23 23 23 23 24 24
27 27 27 26 27 27 26 26 26 26 26 25 25 24 25 25 25 25 25 25 25 24 24 24 23 22 22 22 22 22 22 22 23 23 23 23 23 24 24 24 25 25 25
27 26 27 26 26 27 26 26 26 25 25 25 26 26 26 26 26 27 27 26 26 26 25 25 25 25 24 24 24 24 24 24 24 24 24 24 25 25 26 25 26 26 26
28 27 27 27 27 27 28 27 26 26 25 25 26 26 27 27 27 27 27 26 26 26 26 26 26 26 25 25 25 25 25 25 25 25 25 26 26 27 27 27 27 27 28
28 27 27 27 27 27 28 27 27 26 26 26 26 27 28 28 28 28 27 27 27 27 27 27 27 27 27 26 26 26 26 26 27 27 27 27 27 28 28 28 29 29 29
27 27 27 27 27 28 28 27 28 27 27 27 27 27 27 27 27 28 28 28 28 28 29 29 29 29 28 28 28 28 28 28 28 28 29 29 29 29 30 30 30 30 31
28 28 28 28 28 28 28 28 29 28 28 28 27 27 27 27 27 27 28 28 28 28 29 29 30 30 30 30 30 30 29 29 29 30 30 30 31 30 30 30 30 31 31